Location: London
(42.9830°N, 81.2500°W)
Time: 13:23:01
(UTC-04:00)

Amateur Radio Satellites - All Passes

Search period start: 25 September 2016 12:53
Search period end: 26 September 2016 12:53
Location: London, 42.9830°N, 81.2500°W

Satellite Date Start Highest point End Downlink Frequencies (MHz)
Time Altitude Azimuth
VELOX 1 25 Sep 12:55:08 12:59:13 36° 97° (E) 13:03:16 145.980
AIST 2 25 Sep 12:56:19 12:59:43 23° 44° (NE) 13:03:08 435.215
DX 1 25 Sep 12:57:23 13:00:56 24° 95° (E) 13:04:27 434.975-435.025
M-CUBED/EXP-1 PRIME 25 Sep 13:00:50 13:03:12 18° 100° (E) 13:05:33 437.505
CUBEBUG 1 25 Sep 13:06:56 13:11:16 65° 101° (E) 13:15:33 437.445
Gurwin Techsat 1B 25 Sep 13:23:02 13:26:57 22° 62° (ENE) 13:30:54 435.225
QB50P1 25 Sep 13:26:46 13:29:06 14° 269° (W) 13:31:27 145.935-145.965
DUCHIFAT 1 25 Sep 13:27:37 13:30:12 16° 268° (W) 13:32:47 145.980
BUGSAT 1 25 Sep 13:41:01 13:44:27 25° 264° (W) 13:47:51 437.445
POPSAT HIP 1 25 Sep 13:41:45 13:42:30 10° 271° (W) 13:43:14 437.405
PHONESAT 2.4 25 Sep 13:42:00 13:44:45 35° 166° (SSE) 13:47:31 2401.200-2431.200
JAS-2 25 Sep 13:46:18 13:51:40 28° 270° (W) 13:57:37 435.910
AISAT 25 Sep 13:47:26 13:51:46 58° 287° (WNW) 13:56:04 437.250
50 SAT 25 Sep 13:56:03 13:59:30 38° 288° (WNW) 14:02:55 437.505
TISAT 1 25 Sep 13:57:39 14:00:39 19° 93° (E) 14:03:39 437.305
AUBIESAT-1 25 Sep 13:59:41 14:03:01 87° 289° (WNW) 14:06:19 437.475
SPROUT 25 Sep 14:01:36 14:05:52 74° 285° (WNW) 14:10:06 437.525
YUBILEINY 25 Sep 14:05:19 14:13:01 33° 69° (ENE) 14:20:37 435.215
Cosmos 2491 25 Sep 14:05:38 14:09:42 14° 73° (ENE) 14:13:48 435.465 / 435.565
UKube-1 25 Sep 14:09:51 14:14:10 72° 285° (WNW) 14:18:26 .
AO-7 25 Sep 14:20:09 14:26:24 25° 52° (NE) 14:32:39 29.400- 29.500
ESTCUBE 1 25 Sep 14:20:59 14:23:47 16° 297° (WNW) 14:26:35 437.505/2401.250
PCSat 25 Sep 14:21:19 14:26:33 46° 53° (NE) 14:31:45 145.827
Oscar 19 25 Sep 14:26:21 14:31:26 54° 260° (W) 14:36:32 437.125/150
VELOX 1 25 Sep 14:32:03 14:35:28 22° 295° (WNW) 14:38:52 145.980
DX 1 25 Sep 14:33:17 14:37:09 32° 292° (WNW) 14:40:58 434.975-435.025
AIST 2 25 Sep 14:34:23 14:38:22 42° 243° (WSW) 14:42:19 435.215
M-CUBED/EXP-1 PRIME 25 Sep 14:35:05 14:37:46 23° 297° (WNW) 14:40:24 437.505
SWISSCUBE 25 Sep 14:43:07 14:45:39 14° 90° (E) 14:48:10 437.505
CUBEBUG 1 25 Sep 14:44:56 14:47:00 13° 299° (WNW) 14:49:05 437.445
Cosmos 2504 25 Sep 14:51:09 14:56:45 23° 66° (ENE) 15:02:33 435.465 / 435.565
BEESAT 25 Sep 14:55:56 14:59:04 17° 92° (E) 15:02:11 436.000
Gurwin Techsat 1B 25 Sep 15:01:19 15:06:30 54° 260° (W) 15:11:44 435.225
ITAMSAT 1 25 Sep 15:13:10 15:18:14 59° 72° (ENE) 15:23:20 435.822/435.867
PHONESAT 2.4 25 Sep 15:17:47 15:20:41 51° 183° (S) 15:23:36 2401.200-2431.200
TISAT 1 25 Sep 15:32:34 15:36:25 37° 290° (WNW) 15:40:14 437.305
Cosmos 2491 25 Sep 15:56:09 16:04:53 74° 94° (E) 16:13:41 435.465 / 435.565
YUBILEINY 25 Sep 16:01:47 16:10:13 57° 269° (W) 16:18:36 435.215
ITUPSAT 1 25 Sep 16:04:22 16:09:13 80° 104° (ESE) 16:14:02 437.325
PCSat 25 Sep 16:05:11 16:09:42 27° 251° (WSW) 16:14:11 145.827
AO-7 25 Sep 16:09:53 16:18:14 86° 251° (WSW) 16:26:36 29.400- 29.500
SO-50 25 Sep 16:11:09 16:15:31 35° 116° (ESE) 16:19:52 436.795
HORYU 2 25 Sep 16:17:12 16:18:50 12° 60° (ENE) 16:20:27 437.375
SWISSCUBE 25 Sep 16:19:07 16:23:53 65° 287° (WNW) 16:28:38 437.505
AIST 1 25 Sep 16:25:51 16:28:48 18° 70° (ENE) 16:31:42
BEESAT 25 Sep 16:32:29 16:37:10 54° 288° (WNW) 16:41:49 436.000
Cosmos 2504 25 Sep 16:43:27 16:50:46 72° 266° (W) 16:58:34 435.465 / 435.565
MOZHAYETS 4 25 Sep 16:46:01 16:50:24 40° 98° (E) 16:54:45
BRITE-PL 25 Sep 16:50:41 16:54:38 20° 62° (ENE) 16:58:33 437.365/2234.400
PHONESAT 2.4 25 Sep 16:53:59 16:56:33 26° 199° (SSW) 16:59:07 2401.200-2431.200
ITAMSAT 1 25 Sep 16:54:39 16:58:06 18° 269° (W) 17:01:32 435.822/435.867
NOAA 18 25 Sep 17:14:36 17:16:14 11° 54° (NE) 17:17:53 137.9125
KKS-1 25 Sep 17:31:14 17:35:41 75° 103° (ESE) 17:40:05 437.445
ITUPSAT 1 25 Sep 17:44:09 17:46:23 13° 301° (WNW) 17:48:37 437.325
HORYU 2 25 Sep 17:50:21 17:54:45 77° 258° (WSW) 17:59:11 437.375
SO-50 25 Sep 17:51:37 17:56:01 34° 313° (NW) 18:00:22 436.795
Cosmos 2491 25 Sep 17:55:36 18:02:37 26° 296° (WNW) 18:09:42 435.465 / 435.565
O/OREOS (USA 219) 25 Sep 17:58:26 18:02:57 51° 63° (ENE) 18:07:25 437.305
CUBESAT XI-V 25 Sep 17:58:31 18:02:42 31° 96° (E) 18:06:50 437.345
AIST 1 25 Sep 18:02:34 18:06:36 40° 268° (W) 18:10:34
AO-7 25 Sep 18:06:57 18:12:06 18° 271° (W) 18:17:17 29.400- 29.500
STARS 25 Sep 18:12:25 18:16:48 83° 285° (WNW) 18:21:10 437.465
HO-68 25 Sep 18:15:22 18:18:19 13° 48° (NE) 18:21:16 435.675
MOZHAYETS 4 25 Sep 18:23:43 18:27:19 23° 294° (WNW) 18:30:55
NOAA 15 25 Sep 18:24:39 18:29:53 63° 71° (ENE) 18:35:08 137.62
BRITE-PL 25 Sep 18:26:52 18:32:32 69° 259° (W) 18:38:10 437.365/2234.400
LilacSat-2 25 Sep 18:29:35 18:33:12 47° 73° (ENE) 18:36:51 437.200
GONETS M04 25 Sep 18:30:01 18:32:38 11° 52° (NE) 18:35:14
GOMX 1 25 Sep 18:30:22 18:35:44 64° 74° (ENE) 18:40:54 467.674
Cubesat XI-IV 25 Sep 18:31:10 18:36:21 57° 72° (ENE) 18:41:34 437.490
CUTE-I 25 Sep 18:32:12 18:37:24 59° 72° (ENE) 18:42:38 437.470
Cosmos 2504 25 Sep 18:40:41 18:42:49 11° 284° (WNW) 18:45:00 435.465 / 435.565
NOAA 18 25 Sep 18:50:30 18:55:56 73° 72° (ENE) 19:01:24 137.9125
CINEMA 3 25 Sep 19:02:29 19:05:03 15° 64° (ENE) 19:07:33 145.822/145.860
DOVE 4 25 Sep 19:05:42 19:10:42 62° 74° (ENE) 19:15:27 437.250
KKS-1 25 Sep 19:09:50 19:11:38 12° 300° (WNW) 19:13:25 437.445
RS-15 25 Sep 19:15:26 19:22:41 19° 96° (E) 19:30:07 29.354- 29.394
STRAND 1 25 Sep 19:35:23 19:38:26 16° 90° (E) 19:41:29 437.568
CUBESAT XI-V 25 Sep 19:35:57 19:39:59 29° 293° (WNW) 19:43:59 437.345
O/OREOS (USA 219) 25 Sep 19:39:00 19:41:54 17° 261° (W) 19:44:49 437.305
COMPASS 1 25 Sep 19:47:12 19:49:34 15° 63° (ENE) 19:51:56 437.405
CUSAT 1 25 Sep 19:47:42 19:53:24 48° 90° (E) 20:00:26 437.405
HO-68 25 Sep 19:57:35 20:04:37 61° 68° (ENE) 20:11:39 435.675
Cosmos 2499 25 Sep 20:01:48 20:08:30 34° 72° (ENE) 20:15:34 435.465 / 435.565
CUTE 1.7 + AOD 2 25 Sep 20:02:31 20:06:31 43° 72° (ENE) 20:10:33 437.475
CANX-2 25 Sep 20:03:08 20:07:13 50° 73° (ENE) 20:11:21 2200.000
LilacSat-2 25 Sep 20:06:15 20:07:47 12° 270° (W) 20:09:19 437.200
NOAA 15 25 Sep 20:06:37 20:10:04 17° 269° (W) 20:13:33 137.62
SEEDS 25 Sep 20:09:03 20:12:52 35° 70° (ENE) 20:16:44 437.485
GOMX 1 25 Sep 20:10:35 20:14:09 18° 269° (W) 20:17:39 467.674
Cubesat XI-IV 25 Sep 20:13:07 20:16:48 19° 268° (W) 20:20:31 437.490
CUTE-I 25 Sep 20:14:14 20:17:50 18° 269° (W) 20:21:27 437.470
GONETS M04 25 Sep 20:23:10 20:31:50 56° 76° (ENE) 20:40:24
CUBEBUG 2 25 Sep 20:26:17 20:29:55 29° 69° (ENE) 20:33:32 437.445
NOAA 18 25 Sep 20:33:59 20:37:08 15° 269° (W) 20:40:18 137.9125
CINEMA 3 25 Sep 20:37:19 20:41:47 56° 260° (W) 20:46:06 145.822/145.860
AAUSAT CUBESAT 2 25 Sep 20:39:06 20:42:59 40° 72° (ENE) 20:46:55 437.432
FUNcube-1 25 Sep 20:45:22 20:48:14 19° 66° (ENE) 20:51:07 145.935
DOVE 4 25 Sep 20:45:39 20:48:42 16° 269° (W) 20:51:42 437.250
UWE-3 25 Sep 20:49:42 20:53:28 34° 70° (ENE) 20:57:13 435.000/436.395/437.385
DANDE 25 Sep 20:54:05 20:58:51 60° 94° (E) 21:05:16 436.750
STRAND 1 25 Sep 21:12:58 21:18:04 66° 287° (WNW) 21:23:10 437.568
COMPASS 1 25 Sep 21:20:37 21:24:41 52° 261° (W) 21:28:48 437.405
RS-15 25 Sep 21:21:24 21:32:57 78° 119° (ESE) 21:45:09 29.354- 29.394
ZACube-1 25 Sep 21:24:34 21:28:35 52° 73° (ENE) 21:32:38 437.345
Oscar 11 25 Sep 21:27:15 21:31:26 56° 74° (ENE) 21:35:41 145.826/435.025
CUSAT 1 25 Sep 21:30:09 21:35:41 33° 294° (WNW) 21:42:20 437.405
CUTE 1.7 + AOD 2 25 Sep 21:39:47 21:42:34 17° 268° (W) 21:45:22 437.475
CANX-2 25 Sep 21:41:01 21:43:23 15° 270° (W) 21:45:44 2200.000
ISS 25 Sep 21:41:27 21:44:24 32° 138° (SE) 21:47:22 145.825
SEEDS 25 Sep 21:45:32 21:48:40 20° 267° (W) 21:51:50 437.485
HO-68 25 Sep 21:46:52 21:52:44 27° 266° (W) 21:58:39 435.675
AO-85 25 Sep 21:51:34 21:56:16 34° 115° (ESE) 22:00:43 145.980
Cosmos 2499 25 Sep 21:54:39 22:01:45 49° 270° (W) 22:09:23 435.465 / 435.565
CUBEBUG 2 25 Sep 22:03:06 22:06:33 24° 265° (W) 22:09:58 437.445
HUMSAT D 25 Sep 22:07:30 22:11:03 30° 70° (ENE) 22:14:40 437.325/437.525
PRISM 25 Sep 22:07:52 22:11:55 50° 100° (E) 22:15:55 437.425
AAUSAT CUBESAT 2 25 Sep 22:15:52 22:18:38 17° 268° (W) 22:21:27 437.432
FUNcube-1 25 Sep 22:20:20 22:24:13 38° 262° (W) 22:28:06 145.935
DELFI C3 25 Sep 22:20:33 22:24:33 88° 77° (ENE) 22:28:35 145.870
GONETS M04 25 Sep 22:20:39 22:28:11 33° 277° (W) 22:35:41
ANTELSAT 25 Sep 22:26:18 22:27:17 11° 89° (E) 22:28:16 437.575/2403.000
UWE-3 25 Sep 22:26:54 22:30:01 20° 266° (W) 22:33:07 435.000/436.395/437.385
DANDE 25 Sep 22:38:31 22:42:29 21° 301° (WNW) 22:47:16 436.750
TIGRISAT 25 Sep 22:45:52 22:48:45 17° 92° (E) 22:51:40 435.000
ZACube-1 25 Sep 23:03:12 23:05:12 13° 270° (W) 23:07:12 437.345
Oscar 11 25 Sep 23:05:46 23:07:56 14° 270° (W) 23:10:06 145.826/435.025
AISAT 25 Sep 23:11:04 23:13:37 15° 62° (ENE) 23:16:10 437.250
AUBIESAT-1 25 Sep 23:13:54 23:15:51 13° 59° (ENE) 23:17:44 437.475
ISS 25 Sep 23:17:47 23:20:52 37° 336° (NNW) 23:23:57 145.825
UNISAT 6 25 Sep 23:24:39 23:28:52 46° 99° (E) 23:33:11 437.425
AO-85 25 Sep 23:31:57 23:36:42 37° 311° (NW) 23:41:11 145.980
UKube-1 25 Sep 23:32:11 23:33:42 12° 60° (ENE) 23:35:12 .
RS-15 25 Sep 23:35:43 23:46:41 41° 326° (NW) 23:58:07 29.354- 29.394
ESTCUBE 1 25 Sep 23:43:01 23:47:26 57° 73° (ENE) 23:51:55 437.505/2401.250
HUMSAT D 25 Sep 23:43:30 23:46:42 22° 266° (W) 23:49:57 437.325/437.525
PRISM 25 Sep 23:44:22 23:46:48 15° 297° (WNW) 23:49:13 437.425
M-CUBED/EXP-1 PRIME 25 Sep 23:47:00 23:50:50 36° 67° (ENE) 23:54:26 437.505
POPSAT HIP 1 25 Sep 23:49:02 23:49:25 10° 89° (E) 23:49:49 437.405
VELOX 1 25 Sep 23:53:04 23:57:09 37° 70° (ENE) 00:01:15 145.980
DX 1 25 Sep 23:53:46 23:57:19 25° 66° (ENE) 00:00:53 434.975-435.025
ANTELSAT 26 Sep 00:00:05 00:04:27 74° 285° (WNW) 00:08:55 437.575/2403.000
CUBEBUG 1 26 Sep 00:03:19 00:07:40 60° 73° (ENE) 00:12:02 437.445
NANOSAT C BR1 26 Sep 00:05:07 00:07:40 16° 92° (E) 00:10:12 145.865
TIGRISAT 26 Sep 00:21:28 00:25:39 46° 288° (WNW) 00:29:55 435.000
QB50P2 26 Sep 00:25:19 00:29:01 29° 96° (E) 00:32:42 145.880/145.840
POLYITAN 1 26 Sep 00:27:32 00:31:15 29° 96° (E) 00:34:56 437.675
50 SAT 26 Sep 00:32:58 00:36:36 83° 259° (W) 00:40:16 437.505
SO-50 26 Sep 00:41:31 00:45:52 40° 49° (NE) 00:50:06 436.795
AISAT 26 Sep 00:45:12 00:49:36 59° 259° (W) 00:54:01 437.250
AUBIESAT-1 26 Sep 00:45:51 00:49:57 59° 254° (WSW) 00:53:46 437.475
TISAT 1 26 Sep 00:50:32 00:53:18 17° 64° (ENE) 00:56:03 437.305
JAS-2 26 Sep 00:52:51 01:00:28 49° 97° (E) 01:07:47 435.910
SPROUT 26 Sep 00:55:31 00:59:48 89° 266° (W) 01:04:05 437.525
ISS 26 Sep 00:55:39 00:58:01 18° 356° (N) 01:00:23 145.825
UNISAT 6 26 Sep 01:02:18 01:05:16 18° 295° (WNW) 01:08:16 437.425
UKube-1 26 Sep 01:04:47 01:09:07 77° 257° (WSW) 01:13:28 .
QB50P1 26 Sep 01:08:09 01:12:23 84° 103° (ESE) 01:16:35 145.935-145.965
DUCHIFAT 1 26 Sep 01:08:41 01:12:52 74° 101° (ESE) 01:17:04 145.980
BUGSAT 1 26 Sep 01:21:04 01:24:52 39° 99° (E) 01:28:38 437.445
POPSAT HIP 1 26 Sep 01:21:28 01:25:40 71° 286° (WNW) 01:29:51 437.405
ESTCUBE 1 26 Sep 01:22:04 01:24:36 15° 270° (W) 01:27:09 437.505/2401.250
M-CUBED/EXP-1 PRIME 26 Sep 01:22:17 01:25:24 20° 259° (W) 01:28:22 437.505
DX 1 26 Sep 01:29:25 01:33:21 32° 263° (W) 01:37:19 434.975-435.025
VELOX 1 26 Sep 01:30:15 01:33:43 22° 266° (W) 01:37:11 145.980
ITUPSAT 1 26 Sep 01:37:17 01:39:25 13° 59° (ENE) 01:41:32 437.325
BEESAT 3 26 Sep 01:39:04 01:42:13 23° 113° (ESE) 01:45:23 437.485
NANOSAT C BR1 26 Sep 01:39:37 01:43:38 46° 288° (WNW) 01:47:39 145.865
CUBEBUG 1 26 Sep 01:42:09 01:44:19 13° 270° (W) 01:46:30 437.445
SWISSCUBE 26 Sep 01:50:16 01:53:36 19° 63° (ENE) 01:56:57 437.505
RS-15 26 Sep 01:54:08 02:03:49 26° 359° (N) 02:13:37 29.354- 29.394
QB50P2 26 Sep 02:01:15 02:04:42 25° 293° (WNW) 02:08:09 145.880/145.840
BEESAT 26 Sep 02:03:05 02:06:47 23° 64° (ENE) 02:10:28 436.000
POLYITAN 1 26 Sep 02:03:29 02:06:56 25° 293° (WNW) 02:10:23 437.675
Cosmos 2491 26 Sep 02:05:40 02:13:50 39° 71° (ENE) 02:21:54 435.465 / 435.565
SO-50 26 Sep 02:22:24 02:26:08 25° 247° (WSW) 02:29:47 436.795
TISAT 1 26 Sep 02:24:35 02:28:36 44° 261° (W) 02:32:38 437.305
BEESAT 2 26 Sep 02:29:07 02:32:49 40° 117° (ESE) 02:36:34 435.950
ISS 26 Sep 02:32:33 02:35:18 24° 16° (NNE) 02:38:04 145.825
Oscar 19 26 Sep 02:36:53 02:41:55 50° 100° (E) 02:46:53 437.125/150
JAS-2 26 Sep 02:38:06 02:45:13 40° 296° (WNW) 02:52:12 435.910
DUCHIFAT 1 26 Sep 02:46:46 02:47:58 11° 299° (WNW) 02:49:11 145.980
BUGSAT 1 26 Sep 02:57:16 02:59:57 17° 295° (WNW) 03:02:38 437.445
YUBILEINY 26 Sep 03:07:42 03:15:27 37° 85° (E) 03:23:09 435.215
ITUPSAT 1 26 Sep 03:11:49 03:16:34 81° 257° (WSW) 03:21:23 437.325
BEESAT 3 26 Sep 03:16:09 03:19:42 33° 311° (NW) 03:23:19 437.485
Gurwin Techsat 1B 26 Sep 03:16:25 03:21:39 56° 101° (E) 03:26:51 435.225
ITAMSAT 1 26 Sep 03:25:57 03:29:39 19° 92° (E) 03:33:19 435.822/435.867
SWISSCUBE 26 Sep 03:26:23 03:31:00 51° 260° (W) 03:35:40 437.505
Cosmos 2504 26 Sep 03:33:39 03:37:50 16° 79° (E) 03:41:57 435.465 / 435.565
STARS 26 Sep 03:37:09 03:38:14 11° 59° (ENE) 03:39:19 437.465
BEESAT 26 Sep 03:39:48 03:44:17 41° 261° (W) 03:48:49 436.000
MOZHAYETS 4 26 Sep 03:48:36 03:52:53 41° 71° (ENE) 03:57:12
Cosmos 2491 26 Sep 04:02:27 04:10:51 50° 271° (W) 04:19:11 435.465 / 435.565
BEESAT 2 26 Sep 04:07:39 04:10:47 22° 316° (NW) 04:13:57 435.950
ISS 26 Sep 04:08:49 04:12:07 83° 211° (SSW) 04:15:24 145.825
RS-15 26 Sep 04:09:39 04:21:04 40° 33° (NNE) 04:32:20 29.354- 29.394
AO-7 26 Sep 04:11:04 04:18:09 30° 95° (E) 04:25:11 29.400- 29.500
Oscar 19 26 Sep 04:16:58 04:20:53 22° 297° (WNW) 04:24:46 437.125/150
KKS-1 26 Sep 04:29:47 04:34:14 76° 75° (ENE) 04:38:41 437.445
AIST 2 26 Sep 04:32:38 04:36:14 30° 115° (ESE) 04:39:52 435.215
Gurwin Techsat 1B 26 Sep 04:57:17 05:01:11 21° 298° (WNW) 05:05:05 435.225
CUBESAT XI-V 26 Sep 05:02:29 05:06:41 34° 69° (ENE) 05:10:56 437.345
YUBILEINY 26 Sep 05:03:26 05:11:56 51° 285° (WNW) 05:20:26 435.215
PCSat 26 Sep 05:04:10 05:08:58 34° 110° (ESE) 05:13:48 145.827
ITAMSAT 1 26 Sep 05:04:20 05:09:26 55° 289° (WNW) 05:14:31 435.822/435.867
STARS 26 Sep 05:09:31 05:13:54 84° 253° (WSW) 05:18:19 437.465
Cosmos 2504 26 Sep 05:22:43 05:30:13 85° 278° (W) 05:37:26 435.465 / 435.565
MOZHAYETS 4 26 Sep 05:26:51 05:30:13 20° 267° (W) 05:33:37
HORYU 2 26 Sep 05:41:09 05:44:17 18° 93° (E) 05:47:23 437.375
ISS 26 Sep 05:47:29 05:48:06 10° 230° (SW) 05:48:42 145.825
DANDE 26 Sep 05:49:30 05:53:51 15° 55° (NE) 05:58:12 436.750
AO-7 26 Sep 06:03:14 06:11:23 63° 294° (WNW) 06:19:31 29.400- 29.500
KKS-1 26 Sep 06:10:25 06:11:18 10° 271° (W) 06:12:11 437.445
AIST 2 26 Sep 06:11:04 06:14:41 29° 313° (NW) 06:18:21 435.215
CUSAT 1 26 Sep 06:20:45 06:28:13 42° 70° (ENE) 06:34:41 437.405
RS-15 26 Sep 06:22:35 06:35:01 82° 240° (WSW) 06:47:07 29.354- 29.394
AO-85 26 Sep 06:22:37 06:26:27 32° 47° (NE) 06:30:03 145.980
BRITE-PL 26 Sep 06:31:53 06:36:27 37° 96° (E) 06:40:38 437.365/2234.400
AIST 1 26 Sep 06:31:59 06:36:22 74° 278° (W) 06:40:46
GOMX 1 26 Sep 06:33:22 06:35:52 15° 89° (E) 06:38:18 467.674
NOAA 15 26 Sep 06:39:40 06:43:41 22° 93° (E) 06:47:40 137.62
CUBESAT XI-V 26 Sep 06:40:09 06:44:05 26° 266° (W) 06:48:03 437.345
PCSat 26 Sep 06:47:14 06:52:17 38° 309° (NW) 06:57:22 145.827
Cubesat XI-IV 26 Sep 06:48:10 06:52:12 21° 93° (E) 06:56:11 437.490
CUTE-I 26 Sep 06:48:58 06:53:03 22° 93° (E) 06:57:07 437.470
STRAND 1 26 Sep 06:51:47 06:55:55 26° 64° (ENE) 07:00:04 437.568
DOVE 4 26 Sep 07:05:45 07:07:38 13° 89° (E) 07:09:30 437.250
NOAA 18 26 Sep 07:12:02 07:16:41 28° 95° (E) 07:21:18 137.9125
HORYU 2 26 Sep 07:16:48 07:21:01 43° 289° (WNW) 07:25:14 437.375
Cosmos 2504 26 Sep 07:20:37 07:24:43 15° 299° (WNW) 07:28:46 435.465 / 435.565
DANDE 26 Sep 07:30:05 07:38:21 61° 75° (ENE) 07:46:18 436.750
LilacSat-2 26 Sep 07:35:53 07:39:42 65° 101° (ESE) 07:43:31 437.200
GONETS M04 26 Sep 07:36:31 07:38:35 11° 71° (ENE) 07:40:39
AO-7 26 Sep 07:58:05 08:02:34 16° 316° (NW) 08:07:03 29.400- 29.500
CUSAT 1 26 Sep 08:02:57 08:10:12 42° 272° (W) 08:16:29 437.405
AO-85 26 Sep 08:03:21 08:06:42 25° 247° (WSW) 08:09:56 145.980
GOMX 1 26 Sep 08:10:01 08:14:23 50° 288° (WNW) 08:18:29 467.674
BRITE-PL 26 Sep 08:10:44 08:14:42 25° 295° (WNW) 08:18:26 437.365/2234.400
O/OREOS (USA 219) 26 Sep 08:11:26 08:15:49 50° 108° (ESE) 08:20:16 437.305
NOAA 15 26 Sep 08:18:36 08:23:44 50° 290° (WNW) 08:28:49 137.62
Cubesat XI-IV 26 Sep 08:27:21 08:32:33 52° 290° (WNW) 08:37:44 437.490
CUTE-I 26 Sep 08:28:12 08:33:22 51° 290° (WNW) 08:38:31 437.470
STRAND 1 26 Sep 08:30:04 08:34:51 41° 261° (W) 08:39:42 437.568
CINEMA 3 26 Sep 08:31:06 08:34:43 28° 96° (E) 08:38:22 145.822/145.860
RS-15 26 Sep 08:37:12 08:45:33 22° 262° (W) 08:53:48 29.354- 29.394
Cosmos 2499 26 Sep 08:41:32 08:46:58 24° 83° (E) 08:52:20 435.465 / 435.565
DOVE 4 26 Sep 08:41:37 08:45:45 53° 287° (WNW) 08:49:47 437.250
NOAA 18 26 Sep 08:52:21 08:57:28 41° 292° (WNW) 09:02:33 137.9125
PRISM 26 Sep 08:57:50 09:01:44 40° 71° (ENE) 09:05:40 437.425
COMPASS 1 26 Sep 09:02:55 09:06:16 22° 94° (E) 09:09:36 437.405
HO-68 26 Sep 09:11:40 09:18:44 58° 102° (ESE) 09:25:45 435.675
LilacSat-2 26 Sep 09:12:43 09:13:28 10° 298° (WNW) 09:14:13 437.200
DANDE 26 Sep 09:13:32 09:20:41 33° 274° (W) 09:27:36 436.750
CUTE 1.7 + AOD 2 26 Sep 09:21:51 09:26:10 78° 102° (ESE) 09:30:28 437.475
CANX-2 26 Sep 09:22:41 09:27:02 89° 268° (W) 09:31:20 2200.000
GONETS M04 26 Sep 09:24:47 09:33:26 63° 92° (E) 09:42:07
ANTELSAT 26 Sep 09:26:35 09:27:49 11° 61° (ENE) 09:29:02 437.575/2403.000
SEEDS 26 Sep 09:27:02 09:31:17 61° 100° (E) 09:35:29 437.485
TIGRISAT 26 Sep 09:45:59 09:48:43 17° 64° (ENE) 09:51:26 435.000
CUBEBUG 2 26 Sep 09:51:32 09:55:45 60° 101° (E) 10:00:04 437.445
O/OREOS (USA 219) 26 Sep 09:52:13 09:55:32 19° 307° (NW) 09:58:53 437.305
BEESAT 3 26 Sep 09:54:52 09:58:02 22° 44° (NE) 10:01:11 437.485
AAUSAT CUBESAT 2 26 Sep 09:55:23 09:59:36 68° 101° (E) 10:03:45 437.432
DELFI C3 26 Sep 09:59:41 10:00:35 11° 89° (E) 10:01:28 145.870
FUNcube-1 26 Sep 10:06:51 10:10:47 34° 97° (E) 10:14:46 145.935
CINEMA 3 26 Sep 10:08:23 10:11:47 25° 292° (WNW) 10:15:13 145.822/145.860
UWE-3 26 Sep 10:13:46 10:18:02 70° 101° (E) 10:22:25 435.000/436.395/437.385
UNISAT 6 26 Sep 10:24:22 10:28:27 44° 72° (ENE) 10:32:30 437.425
Cosmos 2499 26 Sep 10:32:26 10:39:30 59° 282° (WNW) 10:46:29 435.465 / 435.565
PRISM 26 Sep 10:34:22 10:37:13 18° 267° (W) 10:40:03 437.425
COMPASS 1 26 Sep 10:38:06 10:41:51 32° 290° (WNW) 10:45:36 437.405
BEESAT 2 26 Sep 10:46:04 10:49:45 34° 49° (NE) 10:53:27 435.950
ZACube-1 26 Sep 10:47:32 10:51:51 80° 283° (WNW) 10:56:14 437.345
Oscar 11 26 Sep 10:49:20 10:53:42 80° 285° (WNW) 10:58:02 145.826/435.025
NANOSAT C BR1 26 Sep 10:58:47 11:00:59 14° 63° (ENE) 11:03:11 145.865
ANTELSAT 26 Sep 10:59:39 11:03:54 76° 257° (WSW) 11:08:11 437.575/2403.000
HO-68 26 Sep 11:00:03 11:06:03 30° 301° (WNW) 11:12:01 435.675
CUTE 1.7 + AOD 2 26 Sep 11:00:06 11:01:22 11° 299° (WNW) 11:02:39 437.475
SEEDS 26 Sep 11:04:22 11:06:28 14° 297° (WNW) 11:08:35 437.485
JAS-2 26 Sep 11:06:50 11:11:56 24° 57° (ENE) 11:17:28 435.910
QB50P2 26 Sep 11:18:55 11:22:23 25° 67° (ENE) 11:25:51 145.880/145.840
TIGRISAT 26 Sep 11:20:57 11:25:03 46° 261° (W) 11:29:10 435.000
POLYITAN 1 26 Sep 11:21:10 11:24:37 25° 68° (ENE) 11:28:05 437.675
GONETS M04 26 Sep 11:23:15 11:30:49 31° 293° (WNW) 11:38:28
HUMSAT D 26 Sep 11:24:37 11:28:47 51° 100° (E) 11:32:57 437.325/437.525
CUBEBUG 2 26 Sep 11:29:46 11:31:56 14° 297° (WNW) 11:34:07 437.445
DELFI C3 26 Sep 11:31:50 11:35:49 62° 285° (WNW) 11:39:46 145.870
BEESAT 3 26 Sep 11:32:05 11:35:50 40° 242° (WSW) 11:39:33 437.485
AAUSAT CUBESAT 2 26 Sep 11:32:53 11:34:30 12° 298° (WNW) 11:36:07 437.432
ESTCUBE 1 26 Sep 11:37:01 11:38:21 11° 89° (E) 11:39:39 437.505/2401.250
FUNcube-1 26 Sep 11:43:28 11:46:51 23° 293° (WNW) 11:50:17 145.935
UWE-3 26 Sep 11:52:14 11:53:59 12° 298° (WNW) 11:55:44 435.000/436.395/437.385
QB50P1 26 Sep 12:01:04 12:05:15 69° 75° (ENE) 12:09:27 145.935-145.965
DUCHIFAT 1 26 Sep 12:01:05 12:05:11 59° 73° (ENE) 12:09:19 145.980
UNISAT 6 26 Sep 12:02:39 12:05:23 16° 268° (W) 12:08:07 437.425
BUGSAT 1 26 Sep 12:11:35 12:15:14 31° 70° (ENE) 12:18:52 437.445
POPSAT HIP 1 26 Sep 12:14:23 12:18:36 86° 255° (WSW) 12:22:49 437.405
Oscar 19 26 Sep 12:19:28 12:21:09 12° 56° (ENE) 12:22:50 437.125/150
BEESAT 2 26 Sep 12:24:11 12:27:26 24° 246° (WSW) 12:30:39 435.950
PHONESAT 2.4 26 Sep 12:31:40 12:34:05 23° 159° (SSE) 12:36:31 2401.200-2431.200
NANOSAT C BR1 26 Sep 12:32:08 12:36:15 56° 259° (W) 12:40:23 145.865
AISAT 26 Sep 12:34:55 12:38:27 23° 94° (E) 12:41:58 437.250
SPROUT 26 Sep 12:41:52 12:44:14 14° 91° (E) 12:46:36 437.525
